STARLINK-33725, 63717

Orbit data source: Space-Track

STARLINK-33725, 63717 is a payload satellite owned by SpaceX/Seattle (US) in LEO that was launched on Mon, 28 Apr 2025 UTC via an FALCON 9 launch vehicle from the Air Force Western Test Range (AFWTR). Payload-class satellites include a variety of spacecraft equipped with specific instruments for various scientific and technological missions. These include communications satellites like Starlink; space stations such as the ISS; scientific satellites like the Hubble; Earth observation satellites from companies like Planet Labs, Umbra, and HawkEye 360; GPS; miniature CubeSats for education and research; and military/defense satellites.

Loading next visibility...
Identifier
63717, 2025-087W
Orbit
LEO
Country
Flag of USUS
Related business
Manufacturer
SpaceX/Seattle
Mission
Operational Commercial Communications
Bus & Motor
STARLINK V2MO, Unknown motor
Mass
575 kg wet, ~530 kg dry
Launch date (UTC)
2025-04-28 (8 months ago)
Launch vehicle
FALCON 9
Launch site
Air Force Western Test Range (AFWTR)
Object type
Payload
Rocket body
Debris
Shape & HBR
Box + 2 Pan, 17.7 m
Radar Cross Section
36.964 m², Large (>1 m²)

Expand to show TLE details & history
Last TLE update: 7 hours ago

TLE from 7 hours ago
0 STARLINK-33725
1 63717U 25087W   25349.90812823  .00020573  00000-0  70422-3 0  9997
2 63717  53.1602 248.6149 0001330  69.0186 291.0957 15.30227555 36371
Epoch: 2025-12-15T21:47Z
TLE epoch observation values (Epoch: 2025-12-15T21:47:42.279Z)
Latitude
-0°
Longitude
-163.11121°
Altitude
475.705 km
Speed
7.629 km/s
True Right ascension
16h 34m 27s
True Declination
0° 00' 00"
Sunlit
Object was in daylight at epoch
Visualization orbit readout
Latitude
Unknown
Longitude
Unknown
Altitude
Unknown
Speed
Unknown
Apparent Right ascension
Unknown
Apparent Declination
Unknown
Sunlit
N/A
Visualization observer readout
Local Sidereal Time
03:07:56
Azimuth
Unknown
Elevation
Unknown
Doppler factor
Unknown
Orbital elements
Apogee altitude
476.301 km
Perigee altitude
474.478 km
Semi-major axis
6,853.526 km
Eccentricity
0.00013
Inclination
53.1602°
RAAN
248.6149°
Arg. of periapsis
69.0186°
True anomaly
291.08148°
Mean anomaly
291.0957°
Eccentric anomaly
291.08859°
Mean motion
3.82536 °/min
Orbital period
94.11 mins
BSTAR
0.00070422
Loading maneuver chart data...
Computing Atmospheric mass density...
Loading historical data...
Loading historical data...
Loading historical data...
Loading historical data...
Loading historical data...
Loading historical data...
Loading historical data...

Documentation

Showing up to 5 results
|